Home   Weather   Albuquerque   Past weeks
Flag for USA

Past Weather in Albuquerque, New Mexico, USA — Yesterday and Last 2 Weeks

Now
72 °F

Passing clouds.


Feels Like: 77 °F
Forecast: 99 / 70 °F
Wind: 7 mph from Southeast

Location: Albuquerque International Airport

Current Time: Jul 19, 2019 at 4:33:38 am

Latest Report: Jul 19, 2019 at 3:52 am


Visibility: 10 mi

Pressure: 29.72 "Hg (24.96 "Hg at 1510m altitude)

Humidity: 38%

Dew Point: 45 °F

Location of AlbuquerqueLocation

Past Weather in Albuquerque — Graph

°F

Albuquerque Temperature Yesterday

Maximum temperature yesterday: 99 °F (at 4:52 pm)
Minimum temperature yesterday: 70 °F (at 5:52 am)
Average temperature yesterday: 85 °F

High & Low Weather Summary for the Past Weeks

 TemperatureHumidityPressure
High99 °F (Jul 18, 4:52 pm)90% (Jul 6, 8:14 pm)30.29 "Hg (Jul 6, 8:14 pm)
Low62 °F (Jul 9, 4:52 am)7% (Jul 8, 7:52 pm)29.66 "Hg (Jul 18, 7:52 pm)
Average80 °F33%29.90 "Hg
* Reported Jul 4 2:52 am — Jul 19 2:52 am, Albuquerque. Weather by CustomWeather, © 2019

Note: Actual official high and low records may vary slightly from our data, if they occured in-between our weather recording intervals... More about our weather records

Advertising

Albuquerque Weather History for the Previous 24 Hours

Scroll right to see more
 ConditionsComfort  
Time TempWeatherWind HumidityBarometerVisibility
2:52 am
Fri, Jul 19
75 °FPassing clouds.10 mph36%29.72 "Hg10 mi
1:52 am77 °FPassing clouds.8 mph33%29.72 "Hg10 mi
12:52 am80 °FPassing clouds.12 mph30%29.71 "Hg10 mi
11:52 pm
Thu, Jul 18
81 °FPassing clouds.13 mph29%29.71 "Hg10 mi
10:52 pm82 °FPassing clouds.14 mph21%29.72 "Hg10 mi
9:52 pm89 °FPassing clouds.8 mph14%29.69 "Hg10 mi
8:52 pm91 °FPassing clouds.5 mph13%29.67 "Hg10 mi
7:52 pm94 °FScattered clouds.10 mph11%29.66 "Hg10 mi
6:52 pm97 °FScattered clouds.7 mph10%29.67 "Hg10 mi
5:52 pm98 °FPassing clouds.7 mph9%29.67 "Hg10 mi
4:52 pm99 °FPassing clouds.17 mph9%29.68 "Hg10 mi
3:52 pm98 °FPassing clouds.10 mph10%29.71 "Hg10 mi
2:52 pm97 °FPassing clouds.10 mph10%29.74 "Hg10 mi
1:52 pm95 °FPassing clouds.6 mph12%29.76 "Hg10 mi
12:52 pm93 °FPassing clouds.10 mph14%29.79 "Hg10 mi
11:52 am91 °FPassing clouds.5 mph18%29.81 "Hg10 mi
10:52 am87 °FPassing clouds.6 mph22%29.84 "Hg10 mi
9:52 am83 °FPassing clouds.3 mph26%29.85 "Hg10 mi
8:52 am81 °FPassing clouds.No wind27%29.85 "Hg10 mi
7:52 am76 °FPassing clouds.5 mph32%29.85 "Hg10 mi
6:52 am70 °FPassing clouds.6 mph39%29.85 "Hg10 mi
5:52 am70 °FPassing clouds.3 mph39%29.83 "Hg10 mi
4:52 am71 °FPassing clouds.3 mph39%29.82 "Hg10 mi
Weather by CustomWeather, © 2019

See weather overview